"Pseudo-MPEC" for P11TJ2L

Created 2024 Apr 22 10:22:08 UT using Find_Orb

Click here for an explanation of pseudo-MPECs

 
 Astrometry: 
     P11TJ2L* C2024 04 19cRg\i:H\+sh/u1[lue^V%[`)MI]%jsH*A^6:MEiO0CdVrvV\R5guF51
     P11TJ2L  C2024 04 19y:x\sCUAMP=E-h\'2]*rAstrometryY;Ue*KSKGX-A!=b)mB8Oq'F51
     P11TJ2L  C2024 04 191xme5Q^IFmhQu1CCi+EH(;I\.xredacted;Sid+\)ugAx4hfeav*F51
     P11TJ2L  C2024 04 19_?i#7]-`];9j*Wv@:clickK-6IA$i`?+\here$DVm!N+9O8S2-F7F51
     P11TJ2L KC2024 04 20.38617615 54 42.473-11 47 47.94   ~4K9q 21.42GVNEOCPI52
     P11TJ2L KC2024 04 20.39005915 54 42.012-11 48 04.32   ~4K9q 21.25GVNEOCPI52
     P11TJ2L KC2024 04 20.39393315 54 41.533-11 48 19.76   ~4K9q 21.73GVNEOCPI52
     P11TJ2L KC2024 04 20.39780115 54 41.004-11 48 37.12   ~4K9q 21.59GVNEOCPI52
     P11TJ2L  C2024 04 20WR1rWbZ:f$for`/7d.GWcubJT06aVmR4yc`W\H7vh;vN%g834pvdF51
     P11TJ2L  C2024 04 202S4gc%(?r[-qDmN;explanation@V*[-X:tK'cuXM-1aNN@WG88UF51

Station data:
(F51) Pan-STARRS 1, Haleakala  (N20.707234 W156.255910)  US/Hawaii.
   Observers J. Bulger, T. Lowe, A. Schultz, M. Willman. Measurers K.
   Chambers, S. Chastel, T. de Boer, L. Denneau, J. Fairlamb, H. Flewelling,
   M. Huber, C.-C. Lin, E. Magnier, Y. Ramanjooloo, R. Wainscoat, R. Weryk.
   1.8-m Ritchey-Chrétien + CCD.
(I52) Steward Observatory, Mt. Lemmon Station  (N32.442570 W110.788920)
   US/Arizona.  Observers T. A. Pruyne, B. M. Africano, E. J. Christensen, G.
   A. Farneth, D. C. Fuls, A. R. Gibbs, A. D. Grauer, H. Gröller, J. A.
   Johnson, R. A. Kowalski, S. M. Larson, G. J. Leonard, D. Rankin, R. L.
   Seaman, F. C. Shelly, K. W. Wierzchoś. 1.0-m prime focus + CCD.

Orbital elements:  P11TJ2L
   Perihelion 2024 Aug 12.48895 +/- 14.9 TT = 11:44:05 (JD 2460534.98895)
Epoch 2024 Apr 20.0 TT = JDT 2460420.5   Earth MOID: 0.1035      AutoNEOCP
M 263.79586453 +/- 14               (J2000 ecliptic)
n   0.84029186 +/- 0.014            Peri.  274.34093 +/- 15
a   1.11219928 +/- 0.0123           Node    38.57213 +/- 0.10
e   0.0315687 +/- 0.0114            Incl.   10.69251 +/- 0.16
P   1.17/428.41d           H 24.77  G  0.15   U  9.9
q 1.07708855 +/- 0.0244    Q 1.14731001 +/- 0.00348
From 10 observations 2024 Apr. 19-20 (21.3 hr); mean residual 0".31
Residuals in arcseconds: 
240419 F51  .10-  .15-    240420 I52  .46+  .00     240420 F51  .04+  .09-    
240419 F51  .16+  .23+    240420 I52  .51+  .18-    240420 F51  .13-  .13+    
240419 F51  .01+  .10-    240420 I52  .29+  .55+    
240419 F51  .08-  .03+    240420 I52  .68-  .68-    

Ephemerides (geocentric):
Date (UTC) HH   RA             Dec           delta  r     elong  mag " sig PA
---- --------  ------------   ------------  ------ ------ -----  --- --------
2024 04 22 10  15 51 12.281   -14 13 34.43  .12244 1.1159 153.1 21.6 26.7  26
2024 04 22 11  15 51 07.581   -14 16 41.68  .12235 1.1158 153.2 21.6 27.7  26
2024 04 22 12  15 51 02.865   -14 19 49.20  .12226 1.1158 153.2 21.6 28.7  26
2024 04 22 13  15 50 58.134   -14 22 56.99  .12217 1.1158 153.3 21.6 29.8  26
2024 04 22 14  15 50 53.386   -14 26 05.05  .12208 1.1158 153.4 21.6 30.9  26
2024 04 22 15  15 50 48.622   -14 29 13.37  .12199 1.1157 153.4 21.6 32.0  26
2024 04 22 16  15 50 43.842   -14 32 21.97  .12190 1.1157 153.5 21.6 33.1  25
2024 04 22 17  15 50 39.045   -14 35 30.84  .12181 1.1157 153.5 21.6 34.3  25
2024 04 22 18  15 50 34.233   -14 38 39.98  .12172 1.1157 153.6 21.5 35.5  25
2024 04 22 19  15 50 29.404   -14 41 49.38  .12163 1.1157 153.6 21.5 36.6  25
2024 04 22 20  15 50 24.559   -14 44 59.05  .12155 1.1156 153.7 21.5 37.9  25
2024 04 22 21  15 50 19.697   -14 48 08.99  .12146 1.1156 153.8 21.5 39.1  25
2024 04 22 22  15 50 14.819   -14 51 19.20  .12137 1.1156 153.8 21.5 40.3  25
2024 04 22 23  15 50 09.925   -14 54 29.68  .12128 1.1156 153.9 21.5 41.6  25
2024 04 23 00  15 50 05.015   -14 57 40.42  .12119 1.1156 153.9 21.5 42.9  25
2024 04 23 01  15 50 00.088   -15 00 51.43  .12110 1.1155 154.0 21.5 44.2  25
2024 04 23 02  15 49 55.144   -15 04 02.71  .12102 1.1155 154.0 21.5 45.6  25
2024 04 23 03  15 49 50.185   -15 07 14.26  .12093 1.1155 154.1 21.5 46.9  25
2024 04 23 04  15 49 45.208   -15 10 26.07  .12084 1.1155 154.2 21.5 48.3  25
2024 04 23 05  15 49 40.215   -15 13 38.14  .12076 1.1154 154.2 21.5 49.7  25
2024 04 23 06  15 49 35.206   -15 16 50.49  .12067 1.1154 154.3 21.5 51.1  25
2024 04 23 07  15 49 30.180   -15 20 03.09  .12058 1.1154 154.3 21.5 52.6  25
2024 04 23 08  15 49 25.137   -15 23 15.97  .12049 1.1154 154.4 21.5 54.0  24
2024 04 23 09  15 49 20.078   -15 26 29.11  .12041 1.1154 154.5 21.5 55.5  24
2024 04 23 10  15 49 15.002   -15 29 42.51  .12032 1.1153 154.5 21.5 57.0  24
2024 04 23 11  15 49 09.910   -15 32 56.18  .12024 1.1153 154.6 21.5 58.5  24
2024 04 23 12  15 49 04.800   -15 36 10.11  .12015 1.1153 154.6 21.5 60.1  24
2024 04 23 13  15 48 59.675   -15 39 24.30  .12007 1.1153 154.7 21.5 61.7  24
2024 04 23 14  15 48 54.532   -15 42 38.76  .11998 1.1153 154.7 21.5 63.3  24
2024 04 23 15  15 48 49.372   -15 45 53.48  .11989 1.1152 154.8 21.5 64.9  24
2024 04 23 16  15 48 44.196   -15 49 08.47  .11981 1.1152 154.9 21.5 66.5  24
2024 04 23 17  15 48 39.003   -15 52 23.71  .11972 1.1152 154.9 21.5 68.2  24
2024 04 23 18  15 48 33.793   -15 55 39.22  .11964 1.1152 155.0 21.5 69.9  24
2024 04 23 19  15 48 28.566   -15 58 54.99  .11956 1.1151 155.0 21.5 71.6  24
2024 04 23 20  15 48 23.322   -16 02 11.02  .11947 1.1151 155.1 21.5 73.3  24
2024 04 23 21  15 48 18.062   -16 05 27.31  .11939 1.1151 155.1 21.5 75.1  24
2024 04 23 22  15 48 12.784   -16 08 43.87  .11930 1.1151 155.2 21.5 76.8  24
2024 04 23 23  15 48 07.489   -16 12 00.68  .11922 1.1151 155.3 21.5 78.6  24
2024 04 24 00  15 48 02.178   -16 15 17.75  .11914 1.1150 155.3 21.5 80.5  24
2024 04 24 01  15 47 56.849   -16 18 35.09  .11905 1.1150 155.4 21.5 82.3  24
2024 04 24 02  15 47 51.503   -16 21 52.68  .11897 1.1150 155.4 21.4 84.2  24
2024 04 24 03  15 47 46.140   -16 25 10.53  .11889 1.1150 155.5 21.4 86.1  24
2024 04 24 04  15 47 40.760   -16 28 28.64  .11881 1.1150 155.5 21.4 88.0  24
2024 04 24 05  15 47 35.363   -16 31 47.00  .11872 1.1149 155.6 21.4 89.9  24
2024 04 24 06  15 47 29.949   -16 35 05.63  .11864 1.1149 155.6 21.4 91.9  24
2024 04 24 07  15 47 24.518   -16 38 24.51  .11856 1.1149 155.7 21.4 93.9  24
2024 04 24 08  15 47 19.069   -16 41 43.65  .11848 1.1149 155.8 21.4 95.9  24
2024 04 24 09  15 47 13.603   -16 45 03.04  .11840 1.1149 155.8 21.4 97.9  24